Temperature
18 17 17 17 18 17 17 17 17 17 17 17 17 16 16 16 16 16 16 16 16 16 16 16 16 16 16 16 16 16 16 17 17 17 17 17 17 17 17 16 16 15 15
18 17 17 17 17 17 17 17 17 17 17 17 17 16 16 16 16 16 16 16 16 16 16 15 16 16 16 16 16 16 16 16 16 17 17 17 17 16 16 16 16 15 15
17 17 17 17 17 17 17 17 17 17 17 17 16 16 16 16 16 16 16 16 16 16 15 15 15 15 15 15 16 16 16 16 16 16 16 16 16 16 16 16 16 15 15
17 17 17 17 17 17 17 17 17 17 17 16 16 16 16 16 16 16 16 16 16 16 15 15 15 15 15 15 15 15 15 15 15 15 15 16 16 16 16 15 15 15 15
18 17 17 17 17 17 17 17 16 16 16 16 16 16 16 16 16 16 16 15 15 15 15 15 15 15 15 15 15 15 15 15 15 15 15 15 15 15 15 15 15 15 15
18 17 17 17 17 17 16 16 16 16 16 16 16 16 15 15 15 16 16 15 15 15 15 15 15 14 14 14 14 14 14 14 14 14 14 14 14 14 14 14 14 14 14
17 17 17 17 16 16 16 16 16 16 16 16 15 15 15 15 15 15 15 15 15 14 14 14 14 14 14 14 14 14 14 14 13 13 13 14 14 14 14 14 14 14 14
17 17 16 16 16 16 16 15 15 15 15 15 15 15 14 14 14 15 14 14 14 14 13 13 13 13 13 13 13 13 13 13 13 13 13 13 13 13 13 13 13 13 13
16 16 16 16 16 15 15 15 15 14 14 14 14 14 14 13 14 14 14 13 13 13 13 12 12 12 12 12 12 12 12 12 12 12 12 12 12 12 12 12 12 11 11
15 15 15 15 15 14 14 14 14 14 13 13 13 13 13 13 13 13 13 12 12 12 12 11 11 11 11 11 11 11 11 11 11 11 11 11 11 11 11 11 10 10 10
14 14 14 14 14 14 13 13 13 13 13 12 12 12 12 12 12 12 12 12 11 11 11 10 10 10 10 10 10 10 10 10 10 10 10 10 10 10 10 10 9 9 9
14 14 13 13 13 13 13 13 13 12 12 12 11 11 11 11 11 11 11 11 10 10 10 10 9 10 10 9 9 9 9 9 9 9 9 9 9 9 9 9 9 8 8
13 13 13 12 12 12 12 12 12 12 11 11 11 10 10 10 10 10 10 9 9 9 9 9 9 9 9 8 8 8 8 8 8 8 8 8 8 8 8 7 7 7 7
12 12 12 12 12 11 11 11 11 11 11 10 10 10 9 9 9 9 9 9 9 8 9 9 9 8 8 8 8 8 7 7 7 7 7 7 6 6 6 6 6 6 6
12 12 11 11 11 11 11 11 11 10 10 10 10 9 9 9 8 8 8 8 8 8 8 8 8 8 8 7 7 7 7 6 6 6 6 5 5 5 5 5 5 5 5
12 12 11 11 11 11 11 10 10 10 9 9 9 9 8 8 8 8 7 7 7 7 7 7 7 7 6 6 6 6 5 5 5 5 4 4 4 4 4 4 4 4 4
11 11 11 11 11 10 10 10 9 9 8 8 8 7 7 7 7 7 7 7 7 7 6 6 6 5 5 5 5 4 4 4 4 4 3 3 3 3 3 3 3 3 3
11 11 11 11 11 10 10 10 9 9 8 8 7 7 7 6 6 6 6 6 6 6 5 5 5 4 4 4 3 3 3 3 3 3 2 2 2 2 2 2 2 2 2
11 11 11 11 11 10 10 10 9 9 8 8 7 6 6 6 6 6 5 5 5 5 4 4 4 4 3 3 3 2 2 2 2 2 2 2 1 1 1 1 1 1 1
10 10 10 10 10 10 10 10 9 9 8 7 7 6 6 6 6 5 5 5 4 4 4 3 3 3 3 2 2 2 2 2 1 1 1 1 1 1 1 1 1 1 1
10 10 10 10 10 9 9 9 9 8 8 7 7 6 6 6 6 5 5 4 4 3 3 3 3 2 2 2 1 1 1 1 1 0 0 0 -0 -0 0 0 0 0 0
10 10 10 9 9 9 9 8 8 8 7 7 6 6 5 5 5 4 4 4 3 3 3 2 2 2 1 1 1 1 0 0 0 0 0 -0 -0 -0 -0 -0 0 0 0
10 10 9 9 8 8 8 8 8 7 7 6 6 6 5 5 4 4 3 3 3 2 2 2 2 1 1 1 0 0 -0 -0 -0 -0 -0 -0 -0 -0 -0 -0 0 0 1
9 9 9 9 8 8 8 7 7 7 6 6 5 5 5 4 4 3 3 3 2 2 2 2 1 1 1 0 -0 -0 -0 -0 -0 -0 -0 -0 -0 -0 -0 -0 0 0 1
9 9 8 8 8 8 7 7 6 6 6 5 5 4 4 4 3 3 2 2 2 2 1 1 1 1 0 0 -0 -0 -0 -0 -0 -0 -0 -0 -0 -0 -0 -0 0 0 1
9 8 8 8 7 7 7 6 6 5 5 5 4 4 4 3 3 2 2 2 1 1 1 1 1 0 -0 -0 -0 -0 -0 -0 -0 -0 -0 -0 -0 -1 -0 -0 0 0 1
Wind_Speed
10 9 8 9 9 8 7 6 6 4 5 6 6 6 6 6 6 6 6 5 6 6 5 5 5 4 4 4 2 3 3 3 3 4 2 1 4 3 6 9 10 11 16
9 8 8 8 8 8 7 6 6 5 5 6 6 5 6 6 6 7 7 6 5 6 6 5 5 5 5 4 4 4 3 2 2 4 3 1 2 5 5 6 7 11 12
9 8 8 8 8 8 7 7 6 6 5 5 5 5 4 4 4 5 5 5 5 6 6 6 5 5 5 4 4 4 4 4 2 3 4 3 3 4 4 6 7 6 11
8 8 8 7 7 7 7 6 5 5 5 4 4 3 3 2 2 3 4 5 5 5 5 4 4 4 4 4 4 4 4 4 4 4 4 4 4 4 3 4 5 5 7
9 8 8 7 6 6 6 6 6 5 5 4 4 2 1 1 2 2 3 5 4 4 3 2 3 2 2 2 3 2 3 3 4 4 5 5 4 3 3 3 5 4 5
8 8 7 7 7 6 6 6 5 5 4 4 4 4 4 3 5 4 2 1 1 1 2 2 2 2 1 1 2 2 2 4 4 4 5 5 5 4 3 4 3 4 4
6 6 7 7 6 5 6 6 5 5 5 5 6 7 6 6 8 7 6 2 3 3 3 2 2 4 5 3 3 3 4 4 5 4 5 5 5 4 5 5 4 5 5
7 6 6 7 7 7 7 7 7 7 7 8 8 8 7 9 10 9 7 3 4 4 5 5 4 5 6 6 5 4 3 2 3 3 3 4 5 4 4 5 6 7 7
9 8 8 8 9 9 10 9 8 9 9 9 9 9 9 10 13 12 8 4 5 6 6 7 6 5 8 9 5 5 4 4 5 4 4 5 6 7 5 3 5 5 6
11 11 11 10 10 11 11 10 9 9 9 9 10 10 10 10 13 14 10 5 5 5 5 6 10 8 9 10 6 5 5 5 6 7 5 6 6 6 6 4 4 5 5
12 12 12 12 12 11 10 9 10 10 10 9 10 9 9 9 11 13 12 7 5 4 4 4 4 7 7 7 6 3 4 5 6 6 5 4 4 3 2 2 3 3 5
12 13 12 10 10 11 9 9 9 8 9 8 8 8 7 8 9 10 11 10 8 5 4 3 3 4 5 6 4 5 7 7 4 5 4 4 4 4 4 3 5 5 6
13 12 12 12 10 9 9 8 7 5 6 6 6 7 7 7 7 9 8 8 8 5 4 5 5 5 6 4 5 7 7 4 4 5 5 5 5 5 5 4 5 6 7
13 11 10 11 11 11 9 9 9 8 7 7 7 7 7 7 7 7 6 6 7 6 5 6 8 7 6 6 4 2 2 3 4 4 5 6 6 6 6 6 6 6 7
11 11 11 12 12 11 11 10 10 10 9 8 8 7 7 6 6 7 6 6 6 6 7 5 3 2 2 3 4 4 5 5 6 6 6 6 6 7 6 6 6 7 8
8 8 9 9 9 10 10 11 16 12 14 16 13 10 7 6 4 7 9 9 10 10 7 5 5 6 7 7 7 7 7 7 7 7 6 6 7 7 7 7 7 8 8
8 7 7 8 8 8 8 9 8 8 11 11 11 10 7 3 4 7 9 12 11 8 4 5 6 6 7 7 7 7 7 7 6 6 7 7 7 7 7 7 8 8 8
8 8 6 5 5 6 5 6 7 7 6 5 3 3 2 1 4 7 10 9 4 4 5 7 6 6 7 7 7 7 7 7 6 7 7 7 7 8 8 8 8 9 10
7 6 5 4 5 5 4 5 5 5 6 5 5 2 2 4 5 7 7 5 7 7 7 7 7 7 6 6 6 6 7 6 7 7 7 8 8 8 8 8 8 11 10
6 7 5 4 5 5 5 5 5 4 5 5 6 5 3 2 1 2 3 5 7 7 7 7 6 6 6 5 6 6 7 7 7 7 8 8 8 8 9 10 9 9 9
6 5 3 5 6 6 5 6 6 5 6 5 7 6 4 5 6 7 6 6 6 7 6 6 6 6 6 6 6 7 9 8 8 8 9 9 10 10 9 9 9 9 9
4 4 5 7 7 6 5 5 6 5 5 6 5 4 3 4 6 7 6 6 6 6 6 6 6 6 6 6 7 7 8 9 9 10 11 11 10 10 10 9 9 9 9
4 6 6 6 5 4 3 5 6 5 5 5 5 5 5 5 6 6 6 6 6 6 7 7 5 6 8 9 9 8 7 8 9 10 11 11 11 11 10 10 11 11 10
5 5 5 5 4 4 4 5 5 5 6 5 5 5 5 5 5 6 6 6 6 6 7 7 7 8 10 10 10 10 10 11 12 12 13 11 12 11 11 10 11 11 10
5 5 5 5 4 4 5 5 5 6 6 6 6 5 5 5 5 6 6 6 7 6 8 8 8 9 10 11 12 12 13 15 14 13 13 11 11 12 12 12 10 11 11
5 5 5 5 4 5 5 5 5 4 4 5 5 5 5 5 5 6 6 6 6 6 7 8 10 11 11 11 12 13 15 17 17 17 14 11 10 11 11 10 12 11 11
Wind_Direction
182 185 180 179 184 184 187 186 182 179 163 169 176 179 188 190 191 200 237 213 201 220 233 228 220 257 301 314 278 256 256 255 269 286 272 164 156 174 165 216 231 212 213
180 179 180 177 177 181 185 182 179 178 182 184 186 188 199 200 196 201 226 231 213 220 229 234 225 230 224 262 299 295 284 278 273 290 297 294 210 202 196 215 240 245 235
177 176 175 175 177 180 181 178 177 183 192 192 187 189 199 210 206 212 222 243 238 232 228 227 227 239 237 237 244 275 291 283 242 257 272 268 251 227 217 226 244 257 266
170 170 172 175 176 175 172 166 167 179 181 181 173 169 176 201 231 238 232 238 246 249 244 240 237 232 232 240 251 254 271 287 286 265 267 270 261 245 222 223 248 249 254
162 168 174 172 164 159 159 157 162 170 177 167 157 154 137 107 353 299 259 246 240 248 258 259 262 259 240 240 262 278 282 279 280 276 272 271 272 276 254 247 255 264 259
158 165 161 159 158 157 157 159 155 149 142 129 123 108 82 48 12 23 12 319 357 345 323 324 306 354 336 225 267 293 295 285 291 293 294 297 302 312 319 303 298 298 286
137 141 143 146 144 143 146 133 129 126 115 101 90 84 77 44 29 35 37 29 41 37 24 17 355 22 16 355 320 284 266 252 245 267 286 297 306 323 325 315 308 297 280
107 108 115 116 117 113 107 104 99 93 91 85 80 76 69 41 31 33 30 50 57 51 46 44 54 34 10 359 340 332 328 328 290 259 267 285 300 315 305 294 289 285 273
90 88 95 106 108 104 99 94 90 89 86 85 82 77 70 46 33 31 29 58 67 63 59 48 47 43 20 14 7 360 355 348 352 351 314 292 288 288 284 293 289 286 285
87 85 84 89 96 97 97 97 96 95 94 90 82 75 71 58 39 36 29 50 61 65 74 67 54 47 35 25 16 6 359 351 342 332 315 295 277 271 255 237 270 284 290
88 88 86 88 90 91 92 98 99 98 96 94 92 85 77 70 55 46 40 43 36 42 58 65 56 40 28 15 1 349 329 318 311 303 298 294 293 291 284 256 255 272 290
91 89 89 88 90 93 93 93 98 107 109 105 103 98 86 72 56 49 45 40 25 34 36 45 47 6 348 333 325 316 316 314 300 303 313 325 334 338 336 324 306 287 272
92 89 86 83 80 84 90 93 96 97 100 101 99 94 86 70 52 36 29 26 17 22 18 357 325 299 303 297 268 286 304 315 329 334 342 344 340 334 326 316 309 302 294
95 94 91 86 77 64 61 59 57 53 63 71 67 72 75 63 38 18 8 17 12 16 360 322 297 277 282 302 311 294 305 356 355 345 342 340 338 336 335 339 334 328 318
100 98 93 87 85 76 67 57 66 56 61 69 63 59 57 54 25 9 10 5 356 352 331 307 316 6 2 6 5 12 12 11 6 358 350 344 341 338 337 340 335 329 321
106 108 109 108 106 104 98 80 56 65 67 72 73 79 82 71 21 5 360 346 336 338 338 345 20 22 16 12 7 5 9 12 4 351 346 346 342 338 335 336 334 327 321
82 84 97 107 116 121 122 118 109 79 64 67 75 81 86 71 5 348 344 333 321 330 347 19 28 21 13 8 5 3 360 357 352 348 346 342 338 334 331 330 329 325 321
79 78 80 91 98 100 110 122 129 135 130 117 109 122 142 260 313 324 336 336 358 30 25 26 21 17 14 9 3 359 352 347 351 347 341 341 338 334 330 329 327 326 323
70 67 61 74 87 91 97 101 98 99 109 119 127 125 242 260 261 287 322 355 21 29 25 20 18 14 12 8 2 354 349 346 349 343 342 343 337 331 326 323 321 320 316
78 61 42 60 79 78 72 76 78 78 85 90 86 58 13 335 51 43 42 26 24 25 20 14 11 8 10 5 360 353 344 343 346 345 342 337 333 327 321 316 315 315 312
103 91 54 55 61 53 58 64 64 59 60 70 80 69 13 2 32 38 34 31 26 20 18 7 2 9 15 7 360 347 342 348 353 347 340 333 326 322 317 312 309 307 305
98 98 76 71 69 50 42 60 65 64 61 65 88 96 49 21 36 34 26 25 23 18 17 7 0 10 15 2 349 348 354 1 355 343 332 324 319 315 313 311 308 307 305
82 91 90 84 85 86 61 59 58 56 54 52 49 47 50 36 34 34 24 26 19 13 11 4 360 8 11 1 1 15 16 1 342 328 322 318 315 311 308 305 304 305 305
67 75 84 88 82 74 70 70 59 53 53 50 45 38 39 40 34 33 26 25 10 7 5 359 0 4 9 12 17 19 13 352 337 325 319 310 305 303 303 302 303 304 304
77 73 77 72 68 68 65 63 57 48 45 44 42 34 27 24 30 33 27 19 3 3 360 0 2 2 11 25 21 8 357 348 339 329 315 303 299 299 299 303 306 306 306
76 78 81 82 75 71 68 61 56 51 51 52 43 30 19 21 32 32 21 8 357 357 359 357 359 10 26 26 15 6 356 347 339 331 318 300 296 300 309 312 313 313 311
Height
1494 1497 1501 1504 1507 1511 1515 1518 1521 1524 1527 1529 1531 1534 1535 1537 1539 1540 1541 1543 1544 1544 1545 1546 1547 1548 1549 1550 1551 1552 1552 1552 1552 1552 1553 1553 1553 1553 1553 1553 1553 1553 1552
1492 1495 1499 1502 1505 1508 1512 1515 1518 1521 1524 1527 1529 1531 1533 1535 1537 1538 1540 1541 1542 1543 1543 1544 1544 1545 1546 1547 1547 1548 1549 1549 1550 1549 1550 1550 1550 1550 1550 1549 1549 1549 1549
1491 1494 1497 1499 1502 1506 1509 1513 1516 1519 1522 1524 1527 1529 1531 1533 1534 1536 1537 1538 1539 1540 1541 1541 1542 1543 1543 1544 1544 1545 1545 1546 1546 1546 1546 1546 1546 1546 1545 1545 1545 1545 1545
1490 1493 1495 1498 1500 1504 1507 1511 1514 1517 1519 1522 1524 1526 1528 1529 1531 1533 1534 1535 1536 1537 1538 1538 1539 1539 1540 1540 1541 1541 1541 1542 1542 1542 1542 1542 1542 1542 1541 1541 1540 1540 1540
1489 1491 1494 1496 1499 1502 1505 1508 1511 1515 1517 1519 1521 1523 1525 1527 1528 1529 1531 1532 1533 1534 1534 1535 1536 1536 1536 1537 1537 1537 1538 1538 1538 1538 1537 1537 1537 1537 1536 1536 1536 1535 1535
1488 1490 1493 1495 1498 1500 1503 1506 1510 1512 1515 1517 1519 1521 1522 1524 1525 1526 1528 1529 1530 1530 1531 1531 1532 1532 1532 1532 1533 1533 1534 1534 1533 1533 1533 1533 1532 1532 1531 1531 1530 1530 1529
1487 1490 1492 1495 1497 1500 1502 1505 1508 1510 1513 1515 1517 1518 1520 1521 1522 1523 1524 1525 1526 1527 1527 1527 1528 1528 1528 1528 1528 1528 1529 1529 1529 1529 1528 1527 1527 1527 1526 1525 1525 1524 1523
1487 1489 1491 1494 1496 1499 1502 1504 1507 1510 1512 1513 1515 1517 1518 1519 1520 1521 1522 1522 1523 1524 1524 1524 1524 1524 1524 1524 1524 1523 1523 1523 1523 1523 1523 1522 1522 1521 1521 1520 1518 1517 1516
1487 1489 1491 1494 1496 1498 1501 1503 1506 1509 1510 1512 1514 1516 1517 1518 1518 1519 1520 1520 1521 1521 1521 1521 1521 1521 1521 1520 1520 1519 1519 1519 1519 1518 1518 1517 1516 1515 1514 1513 1512 1511 1510
1489 1490 1492 1494 1496 1498 1501 1503 1506 1508 1510 1512 1514 1515 1516 1517 1518 1518 1519 1519 1519 1520 1520 1519 1519 1519 1518 1517 1517 1516 1515 1515 1514 1513 1513 1512 1511 1510 1509 1508 1507 1506 1504
1491 1492 1494 1496 1498 1500 1502 1504 1507 1510 1512 1513 1514 1516 1517 1517 1518 1518 1518 1519 1519 1519 1519 1518 1518 1517 1516 1515 1514 1513 1512 1512 1511 1510 1509 1508 1508 1506 1505 1504 1503 1502 1501
1493 1495 1497 1499 1501 1503 1505 1507 1509 1511 1513 1515 1516 1517 1518 1518 1519 1518 1519 1519 1519 1519 1518 1517 1517 1516 1515 1514 1513 1512 1511 1510 1509 1508 1507 1506 1505 1503 1501 1500 1499 1497 1496
1496 1498 1500 1502 1504 1507 1509 1510 1512 1514 1516 1517 1519 1519 1519 1519 1519 1519 1519 1519 1518 1518 1517 1517 1516 1515 1514 1513 1512 1511 1510 1508 1507 1506 1505 1503 1502 1500 1498 1496 1494 1493 1491
1499 1501 1504 1506 1508 1510 1512 1513 1514 1516 1518 1519 1520 1521 1520 1520 1520 1519 1519 1518 1517 1517 1516 1516 1515 1515 1514 1513 1512 1510 1509 1508 1506 1505 1503 1501 1499 1497 1495 1493 1490 1488 1486
1503 1505 1507 1509 1511 1513 1515 1516 1517 1518 1519 1520 1521 1521 1521 1520 1520 1519 1519 1518 1517 1516 1516 1515 1515 1514 1513 1512 1511 1510 1508 1506 1504 1503 1501 1499 1497 1495 1492 1490 1487 1484 1482
1507 1509 1511 1513 1514 1516 1517 1518 1520 1521 1522 1522 1522 1522 1522 1522 1521 1520 1519 1518 1517 1517 1516 1516 1515 1514 1513 1512 1510 1509 1507 1505 1502 1501 1499 1497 1494 1492 1489 1487 1484 1481 1478
1510 1512 1514 1516 1517 1518 1519 1520 1522 1523 1524 1524 1524 1524 1523 1523 1522 1521 1520 1520 1519 1518 1517 1517 1515 1514 1513 1512 1510 1508 1506 1504 1501 1499 1497 1495 1492 1489 1487 1484 1481 1478 1475
1513 1515 1517 1519 1520 1522 1523 1523 1524 1524 1525 1525 1525 1525 1525 1524 1523 1522 1522 1521 1520 1519 1518 1517 1516 1514 1513 1511 1509 1507 1505 1503 1500 1498 1496 1493 1490 1487 1484 1481 1478 1475 1472
1516 1517 1519 1521 1522 1523 1524 1525 1526 1527 1527 1527 1527 1527 1526 1525 1524 1524 1523 1522 1522 1520 1519 1518 1516 1515 1513 1511 1509 1506 1504 1502 1499 1496 1494 1491 1488 1485 1482 1478 1475 1472 1468
1518 1520 1521 1523 1524 1525 1526 1527 1527 1528 1529 1529 1528 1528 1527 1527 1526 1525 1524 1523 1522 1521 1520 1518 1517 1515 1512 1510 1508 1505 1503 1500 1497 1494 1491 1488 1485 1482 1478 1475 1472 1468 1465
1521 1522 1523 1525 1526 1527 1527 1528 1529 1529 1530 1530 1529 1529 1528 1528 1528 1527 1525 1524 1523 1522 1520 1518 1517 1514 1512 1509 1507 1504 1502 1499 1495 1492 1489 1485 1482 1478 1475 1472 1468 1465 1461
1523 1524 1526 1526 1527 1528 1529 1529 1530 1530 1531 1531 1530 1530 1529 1529 1528 1527 1526 1525 1523 1522 1520 1518 1516 1514 1511 1508 1506 1503 1500 1496 1493 1489 1485 1482 1478 1475 1472 1468 1465 1462 1458
1525 1525 1527 1528 1528 1529 1530 1531 1531 1531 1531 1531 1531 1531 1530 1529 1528 1527 1526 1525 1523 1522 1520 1518 1516 1513 1510 1507 1505 1501 1498 1494 1490 1486 1482 1478 1475 1471 1468 1465 1462 1458 1455
1526 1527 1528 1529 1530 1531 1531 1531 1532 1532 1532 1532 1532 1531 1530 1530 1529 1527 1526 1524 1523 1521 1519 1517 1515 1512 1509 1506 1503 1500 1496 1492 1487 1483 1479 1475 1472 1468 1465 1462 1459 1456 1452
1528 1528 1529 1530 1531 1531 1532 1532 1532 1532 1532 1532 1532 1531 1531 1530 1529 1527 1526 1524 1522 1520 1518 1516 1514 1511 1508 1504 1501 1497 1494 1489 1485 1480 1476 1473 1469 1466 1463 1460 1456 1453 1449
1528 1529 1530 1531 1531 1531 1532 1532 1532 1533 1532 1532 1532 1531 1531 1530 1529 1527 1525 1523 1522 1520 1517 1515 1513 1509 1506 1502 1498 1495 1491 1486 1482 1478 1474 1470 1467 1464 1461 1457 1454 1450 1447